Weather in Byureghavan

Armenia     40°18′46″N   44°35′51″E
temp.,
°C
wind,
m/s
gust,
m/s
humid.,
%
clouds,
%
prec.,
mm/h
press.,
hPa
HPBL,
m
17 may, mon
mon1701:00+17ne344899 0.0 101085
04:00+16ne33463 0.0 101066
07:00+17ne23485 0.0 101075
10:00+24ssw132835 0.0 1008876
13:00+28s7920100 0.0 10053725
16:00+19ne9125141 1.9 1006371
19:00+21nne4545100 0.0 1004174
22:00+19nw5113695 0.1 1007568
18 may, tue
tue1801:00+16nne22361 0.1 100921
04:00+15ne22400 0.1 100932
07:00+15ne22430 0.0 101055
10:00+20sw363016 0.0 10101406
13:00+23w372342 0.0 10093183
16:00+25wnw47214 0.0 10082978
19:00+24nnw12282 0.0 1008948
22:00+18ne333512 0.0 101162
19 may, wed
wed1901:00+16ne33401 0.0 101168
04:00+15ne33420 0.0 101144
07:00+16ne22450 0.0 101254
10:00+22sw23310 0.0 1011870
13:00+25sw35250 0.0 10101834
16:00+27sw37225 0.0 10082715
19:00+26w3629100 0.0 10071675
22:00+20ne334319 0.2 101148
20 may, thu
thu2001:00+18ne334513 0.0 101157
04:00+16ne33500 0.0 101362
07:00+17ne22500 0.0 101578
10:00+23ssw22350 0.0 1014784
13:00+26ssw34230 0.0 10131590
16:00+28wsw24190 0.0 10111825
19:00+27s11284 0.0 1011674
22:00+21ne45352 0.0 101384
21 may, fri
fri2101:00+19ne46410 0.0 1014119
04:00+18ne44420 0.0 101570
07:00+19ne33450 0.0 101670
10:00+25sw11284 0.0 1015735
13:00+29ssw24200 0.0 10132074
16:00+31w36170 0.0 10112881
19:00+29ne11230 0.0 1010717
22:00+22ne33310 0.0 101365